User: anonymous   Login
Location: Deep South Regional Star Gaze
(30.9929°N, 90.9586°W)
Time: 23:22:14
(UTC-05:00)
Language:

H-2A R/B - Orbit

View from above orbital plane
View from above orbital plane
View from above satellite
View from above satellite

Ground track
Ground track

The orbit data is extracted from the following two-line orbital elements,

1 26899U 01038B   16206.30819738  .00000270  00000-0  36175-3 0  9994
2 26899  28.0032 198.4151 7109143 330.8801   3.4541  2.47171809128397
Epoch (UTC): 24 July 2016 07:23:48
Eccentricity: 0.7109143
inclination: 28.0032°
perigee height: 301 km
apogee height: 33155 km
right ascension of ascending node: 198.4151°
argument of perigee: 330.8801°
revolutions per day: 2.47171809
mean anomaly at epoch: 3.4541°
orbit number at epoch: 12839

The dashed part of the orbit path shows where the satellite is in the earth's shadow,  

DLR